CW1020 Weather Reports


time (UTC)temp
F
wind
direction
speed
knots
gust
knots
rain 1hr
in
rain 24hr
in
rain mn
in
humidity
%
barometer
mb
20260831030003 74 159 4.3 7.0 0.00 0.00 0.00 36 1016.3
20260831025004 74 170 4.3 7.8 0.00 0.00 0.00 35 1016.1
20260831024503 74 155 4.3 7.8 0.00 0.00 0.00 35 1016.2
20260831024003 74 158 4.3 7.8 0.00 0.00 0.00 34 1016.2
20260831023504 74 158 4.3 7.0 0.00 0.00 0.00 34 1016.2
20260831022004 76 177 3.5 6.1 0.00 0.00 0.00 32 1016.3
20260831021503 76 187 1.7 7.8 0.00 0.00 0.00 31 1016.1
20260831021003 76 173 0.9 6.1 0.00 0.00 0.00 29 1016.2
20260831020503 76 0 0.9 0.0 0.00 0.00 0.00 28 1016.3
20260831015503 77 238 4.3 7.0 0.00 0.00 0.00 28 1016.3
20260831015003 77 236 4.3 8.7 0.00 0.00 0.00 27 1016.3
20260831014503 77 219 6.1 7.0 0.00 0.00 0.00 26 1016.3
20260831014003 78 228 7.0 9.6 0.00 0.00 0.00 26 1016.3
20260831013503 78 227 7.0 9.6 0.00 0.00 0.00 24 1016.2
20260831012004 79 227 6.1 7.8 0.00 0.00 0.00 23 1016.3
20260831011503 79 234 5.2 9.6 0.00 0.00 0.00 23 1016.2
20260831011003 80 228 5.2 9.6 0.00 0.00 0.00 24 1016.3
20260831010004 80 240 7.8 11.3 0.00 0.00 0.00 22 1016.2
20260831005503 80 238 7.8 11.3 0.00 0.00 0.00 22 1016.2
20260831005003 81 240 7.0 10.4 0.00 0.00 0.00 24 1016.3
20260831004504 81 242 6.1 11.3 0.00 0.00 0.00 24 1016.2
20260831004003 81 242 7.0 9.6 0.00 0.00 0.00 25 1016.2
20260831003503 81 224 6.1 9.6 0.00 0.00 0.00 25 1016.3
20260831002503 80 229 6.1 10.4 0.00 0.00 0.00 25 1016.4
20260831002003 80 223 6.1 11.3 0.00 0.00 0.00 24 1016.2
20260831001503 80 221 6.1 8.7 0.00 0.00 0.00 25 1016.3
20260831001003 80 224 7.0 10.4 0.00 0.00 0.00 24 1016.1
20260831000504 80 220 8.7 10.4 0.00 0.00 0.00 25 1016.2
20260831000003 81 228 7.8 16.5 0.00 0.00 0.00 25 1016.2
20260830235503 82 230 7.0 13.9 0.00 0.00 0.00 25 1016.1
20260830235003 81 223 8.7 10.4 0.00 0.00 0.00 26 1016.2
20260830234503 81 223 10.4 12.2 0.00 0.00 0.00 25 1016.2
20260830234003 81 237 8.7 16.5 0.00 0.00 0.00 24 1016.2
20260830233003 81 235 7.8 11.3 0.00 0.00 0.00 23 1016.2
20260830232503 81 235 7.0 12.2 0.00 0.00 0.00 24 1016.3
20260830232003 80 240 6.1 13.9 0.00 0.00 0.00 24 1016.3
20260830231503 79 246 7.0 11.3 0.00 0.00 0.00 26 1016.4
20260830231004 79 247 7.8 10.4 0.00 0.00 0.00 27 1016.5
20260830230504 79 243 8.7 13.9 0.00 0.00 0.00 26 1016.5
20260830230003 79 234 9.6 15.6 0.00 0.00 0.00 26 1016.5
20260830225504 79 237 9.6 14.8 0.00 0.00 0.00 26 1016.5
20260830225003 80 239 8.7 14.8 0.00 0.00 0.00 26 1016.5
20260830224503 81 240 9.6 14.8 0.00 0.00 0.00 26 1016.5
20260830223503 82 232 11.3 17.4 0.00 0.00 0.00 23 1016.5
20260830223003 82 236 10.4 16.5 0.00 0.00 0.00 24 1016.4
20260830222504 83 241 10.4 16.5 0.00 0.00 0.00 22 1016.4
20260830221503 84 235 8.7 15.6 0.00 0.00 0.00 22 1016.5
20260830220504 84 238 7.0 13.9 0.00 0.00 0.00 22 1016.6
20260830220003 84 229 7.8 12.2 0.00 0.00 0.00 22 1016.6
20260830214503 84 241 5.2 13.9 0.00 0.00 0.00 21 1016.7
20260830213503 83 210 7.8 9.6 0.00 0.00 0.00 24 1016.9
20260830212505 82 243 8.7 13.9 0.00 0.00 0.00 23 1016.9
20260830212005 82 244 8.7 13.0 0.00 0.00 0.00 26 1017.0
20260830211506 82 249 8.7 13.0 0.00 0.00 0.00 24 1016.9
20260830211005 82 248 8.7 16.5 0.00 0.00 0.00 24 1017.0
20260830210505 81 246 9.6 13.9 0.00 0.00 0.00 25 1017.0
20260830210006 81 245 9.6 12.2 0.00 0.00 0.00 26 1016.9
20260830205506 81 247 8.7 14.8 0.00 0.00 0.00 26 1017.0
20260830204506 81 245 9.6 15.6 0.00 0.00 0.00 26 1017.1
20260830204006 81 240 9.6 14.8 0.00 0.00 0.00 26 1017.2
20260830203006 81 240 10.4 16.5 0.00 0.00 0.00 26 1017.3
20260830202506 81 232 9.6 15.6 0.00 0.00 0.00 26 1017.2
20260830202005 81 238 8.7 14.8 0.00 0.00 0.00 28 1017.4
20260830201505 82 240 7.8 14.8 0.00 0.00 0.00 26 1017.3
20260830200006 81 236 9.6 13.0 0.00 0.00 0.00 27 1017.3
20260830195506 81 236 10.4 13.9 0.00 0.00 0.00 27 1017.4
20260830194506 81 237 9.6 17.4 0.00 0.00 0.00 27 1017.5
20260830194005 80 237 10.4 18.2 0.00 0.00 0.00 28 1017.6
20260830193506 80 238 9.6 14.8 0.00 0.00 0.00 29 1017.6
20260830193006 80 240 9.6 14.8 0.00 0.00 0.00 28 1017.5
20260830192506 80 240 9.6 12.2 0.00 0.00 0.00 29 1017.6
20260830191005 79 240 10.4 16.5 0.00 0.00 0.00 33 1017.8
20260830190506 79 238 11.3 16.5 0.00 0.00 0.00 33 1017.7
20260830190005 79 234 11.3 17.4 0.00 0.00 0.00 34 1017.8
20260830185506 79 234 10.4 15.6 0.00 0.00 0.00 35 1017.7
20260830185006 79 237 10.4 15.6 0.00 0.00 0.00 36 1017.7
20260830184506 79 238 9.6 14.8 0.00 0.00 0.00 36 1017.7
20260830184006 79 236 9.6 13.9 0.00 0.00 0.00 36 1017.7
20260830183506 78 237 9.6 16.5 0.00 0.00 0.00 37 1017.8
20260830182506 78 237 7.8 13.0 0.00 0.00 0.00 38 1017.8
20260830182006 78 242 8.7 12.2 0.00 0.00 0.00 38 1017.7
20260830181006 78 236 9.6 16.5 0.00 0.00 0.00 38 1017.7
20260830175506 78 235 7.8 13.0 0.00 0.00 0.00 39 1017.8
20260830174506 77 240 9.6 14.8 0.00 0.00 0.00 39 1017.9
20260830173506 77 243 7.8 13.0 0.00 0.00 0.00 41 1018.0
20260830173006 76 240 6.1 13.0 0.00 0.00 0.00 42 1018.0
20260830171506 76 240 6.1 11.3 0.00 0.00 0.00 45 1018.1
20260830171006 76 250 5.2 8.7 0.00 0.00 0.00 45 1018.2
20260830170006 75 240 4.3 7.0 0.00 0.00 0.00 46 1018.0
20260830165505 75 244 4.3 8.7 0.00 0.00 0.00 46 1018.1
20260830165006 75 244 3.5 7.8 0.00 0.00 0.00 47 1018.1
20260830164506 74 237 2.6 7.8 0.00 0.00 0.00 48 1018.1
20260830164006 74 232 1.7 3.5 0.00 0.00 0.00 48 1018.2
20260830163006 73 237 0.9 4.3 0.00 0.00 0.00 50 1018.3
20260830162006 72 306 0.0 2.6 0.00 0.00 0.00 54 1018.3
20260830160506 69 51 0.0 0.9 0.00 0.00 0.00 59 1018.5
20260830160006 68 54 0.0 0.9 0.00 0.00 0.00 61 1018.6
20260830155506 66 60 0.0 0.9 0.00 0.00 0.00 63 1018.7
20260830155006 65 72 0.0 0.9 0.00 0.00 0.00 65 1018.6
20260830154506 64 0 0.0 0.0 0.00 0.00 0.00 66 1018.3
20260830153506 63 0 0.0 0.0 0.00 0.00 0.00 67 1018.4
20260830152503 64 0 0.0 0.0 0.00 0.00 0.00 60 1018.0
20260830152002 64 0 0.0 0.0 0.00 0.00 0.00 60 1018.0
20260830151503 64 0 0.0 0.0 0.00 0.00 0.00 60 1018.0
20260830151002 64 0 0.0 0.0 0.00 0.00 0.00 60 1018.0
20260830150003 64 0 0.0 0.0 0.00 0.00 0.00 60 1018.0
20260830145003 64 0 0.0 0.0 0.00 0.00 0.00 60 1018.0
20260830144503 64 0 0.0 0.0 0.00 0.00 0.00 60 1018.0
20260830144002 64 0 0.0 0.0 0.00 0.00 0.00 60 1018.0
20260830143002 64 0 0.0 0.0 0.00 0.00 0.00 60 1018.0
20260830142503 64 0 0.0 0.0 0.00 0.00 0.00 60 1018.0
20260830141502 64 0 0.0 0.0 0.00 0.00 0.00 60 1018.0
20260830140002 64 0 0.0 0.0 0.00 0.00 0.00 60 1018.0
20260830135003 64 0 0.0 0.0 0.00 0.00 0.00 60 1018.0
20260830134502 64 0 0.0 0.0 0.00 0.00 0.00 60 1018.0
20260830134003 64 0 0.0 0.0 0.00 0.00 0.00 60 1018.0
20260830133502 64 0 0.0 0.0 0.00 0.00 0.00 60 1018.0
20260830133003 64 0 0.0 0.0 0.00 0.00 0.00 60 1018.0
20260830132503 64 0 0.0 0.0 0.00 0.00 0.00 60 1018.0
20260830132002 64 0 0.0 0.0 0.00 0.00 0.00 60 1018.0
20260830131003 64 0 0.0 0.0 0.00 0.00 0.00 60 1018.0
20260830130502 64 0 0.0 0.0 0.00 0.00 0.00 60 1018.0
20260830130003 64 0 0.0 0.0 0.00 0.00 0.00 60 1018.0
20260830125502 64 0 0.0 0.0 0.00 0.00 0.00 60 1018.0
20260830125003 64 0 0.0 0.0 0.00 0.00 0.00 60 1018.0
20260830124502 64 0 0.0 0.0 0.00 0.00 0.00 60 1018.0
20260830124003 64 0 0.0 0.0 0.00 0.00 0.00 60 1018.0
20260830123503 64 0 0.0 0.0 0.00 0.00 0.00 60 1018.0
20260830123002 64 0 0.0 0.0 0.00 0.00 0.00 60 1018.0
20260830122503 64 0 0.0 0.0 0.00 0.00 0.00 60 1018.0
20260830122003 64 0 0.0 0.0 0.00 0.00 0.00 60 1018.0
20260830121503 64 0 0.0 0.0 0.00 0.00 0.00 60 1018.0
20260830121003 64 0 0.0 0.0 0.00 0.00 0.00 60 1018.0
20260830120502 64 0 0.0 0.0 0.00 0.00 0.00 60 1018.0
20260830120003 64 0 0.0 0.0 0.00 0.00 0.00 60 1018.0
20260830115502 64 0 0.0 0.0 0.00 0.00 0.00 60 1018.0
20260830115003 64 0 0.0 0.0 0.00 0.00 0.00 60 1018.0
20260830114502 64 0 0.0 0.0 0.00 0.00 0.00 60 1018.0
20260830114003 64 0 0.0 0.0 0.00 0.00 0.00 60 1018.0
20260830113503 64 0 0.0 0.0 0.00 0.00 0.00 60 1018.0
20260830113002 64 0 0.0 0.0 0.00 0.00 0.00 60 1018.0
20260830112503 64 0 0.0 0.0 0.00 0.00 0.00 60 1018.0
20260830112003 64 0 0.0 0.0 0.00 0.00 0.00 60 1018.0
20260830111002 64 0 0.0 0.0 0.00 0.00 0.00 60 1018.0
20260830110503 64 0 0.0 0.0 0.00 0.00 0.00 60 1018.0
20260830105503 64 0 0.0 0.0 0.00 0.00 0.00 60 1018.0
20260830105003 64 0 0.0 0.0 0.00 0.00 0.00 60 1018.0
20260830104502 64 0 0.0 0.0 0.00 0.00 0.00 60 1018.0
20260830104003 64 0 0.0 0.0 0.00 0.00 0.00 60 1018.0
20260830103503 64 0 0.0 0.0 0.00 0.00 0.00 60 1018.0
20260830103003 64 0 0.0 0.0 0.00 0.00 0.00 60 1018.0
20260830102503 64 0 0.0 0.0 0.00 0.00 0.00 60 1018.0
20260830102002 64 0 0.0 0.0 0.00 0.00 0.00 60 1018.0
20260830101503 64 0 0.0 0.0 0.00 0.00 0.00 60 1018.0
20260830101003 64 0 0.0 0.0 0.00 0.00 0.00 60 1018.0
20260830100503 64 0 0.0 0.0 0.00 0.00 0.00 60 1018.0
20260830100003 64 0 0.0 0.0 0.00 0.00 0.00 60 1018.0
20260830095503 64 0 0.0 0.0 0.00 0.00 0.00 60 1018.0
20260830095003 64 0 0.0 0.0 0.00 0.00 0.00 60 1018.0
20260830094503 64 0 0.0 0.0 0.00 0.00 0.00 60 1018.0
20260830094003 64 0 0.0 0.0 0.00 0.00 0.00 60 1018.0
20260830093502 64 0 0.0 0.0 0.00 0.00 0.00 60 1018.0
20260830093003 64 0 0.0 0.0 0.00 0.00 0.00 60 1018.0
20260830092503 64 0 0.0 0.0 0.00 0.00 0.00 60 1018.0
20260830092003 64 0 0.0 0.0 0.00 0.00 0.00 60 1018.0
20260830091002 64 0 0.0 0.0 0.00 0.00 0.00 60 1018.0
20260830090503 64 0 0.0 0.0 0.00 0.00 0.00 60 1018.0
20260830090003 64 0 0.0 0.0 0.00 0.00 0.00 60 1018.0
20260830085503 64 0 0.0 0.0 0.00 0.00 0.00 60 1018.0
20260830085003 64 0 0.0 0.0 0.00 0.00 0.00 60 1018.0
20260830084502 64 0 0.0 0.0 0.00 0.00 0.00 60 1018.0
20260830084003 64 0 0.0 0.0 0.00 0.00 0.00 60 1018.0
20260830083503 64 0 0.0 0.0 0.00 0.00 0.00 60 1018.0
20260830083003 64 0 0.0 0.0 0.00 0.00 0.00 60 1018.0
20260830082002 64 0 0.0 0.0 0.00 0.00 0.00 60 1018.0
20260830081503 64 0 0.0 0.0 0.00 0.00 0.00 60 1018.0
20260830081003 64 0 0.0 0.0 0.00 0.00 0.00 60 1018.0
20260830080503 64 0 0.0 0.0 0.00 0.00 0.00 60 1018.0
20260830080003 64 0 0.0 0.0 0.00 0.00 0.00 60 1018.0
20260830075502 64 0 0.0 0.0 0.00 0.00 0.00 60 1018.0
20260830074503 64 0 0.0 0.0 0.00 0.00 0.00 60 1018.0
20260830074003 64 0 0.0 0.0 0.00 0.00 0.00 60 1018.0
20260830073503 64 0 0.0 0.0 0.00 0.00 0.00 60 1018.0
20260830072503 65 0 0.0 0.0 0.00 0.00 0.00 60 1018.1
20260830072003 65 0 0.0 0.0 0.00 0.00 0.00 60 1018.0
20260830071503 65 122 0.0 1.7 0.00 0.00 0.00 60 1018.0
20260830071003 65 0 0.0 0.0 0.00 0.00 0.00 60 1018.0
20260830070503 65 0 0.0 0.0 0.00 0.00 0.00 60 1018.1
20260830070005 64 0 0.0 0.0 0.00 0.00 0.00 60 1018.2
20260830065003 64 0 0.0 0.0 0.00 0.00 0.00 60 1018.1
20260830064503 64 0 0.0 0.0 0.00 0.00 0.00 61 1018.1
20260830063503 64 0 0.0 0.0 0.00 0.00 0.00 61 1018.1
20260830063004 64 0 0.0 0.0 0.00 0.00 0.00 61 1018.0
20260830062003 64 128 0.0 0.9 0.00 0.00 0.00 61 1017.9
20260830061003 64 0 0.0 0.0 0.00 0.00 0.00 61 1018.0
20260830060503 65 0 0.0 0.0 0.00 0.00 0.00 61 1018.1
20260830060003 65 0 0.0 0.0 0.00 0.00 0.00 60 1018.1
20260830055504 65 0 0.0 0.0 0.00 0.00 0.00 60 1018.1
20260830054004 66 84 0.0 0.9 0.00 0.00 0.00 59 1018.2
20260830053503 66 0 0.0 0.0 0.00 0.00 0.00 58 1018.2
20260830053003 66 39 0.0 0.9 0.00 0.00 0.00 58 1018.2
20260830052503 67 0 0.0 0.0 0.00 0.00 0.00 57 1018.3
20260830051503 67 0 0.0 0.0 0.00 0.00 0.00 57 1018.3
20260830050003 68 0 0.0 0.0 0.00 0.00 0.00 56 1018.6
20260830045503 68 0 0.0 0.0 0.00 0.00 0.00 55 1018.6
20260830045003 68 41 0.0 0.9 0.00 0.00 0.00 56 1018.6
20260830044503 68 40 0.0 0.9 0.00 0.00 0.00 56 1018.6
20260830044003 69 0 0.0 0.0 0.00 0.00 0.00 56 1018.5
20260830043503 69 40 0.0 0.9 0.00 0.00 0.00 56 1018.6
20260830043003 69 41 0.0 0.9 0.00 0.00 0.00 55 1018.6
20260830042503 69 0 0.0 0.0 0.00 0.00 0.00 54 1018.5
20260830041503 70 0 0.0 0.0 0.00 0.00 0.00 53 1018.4
20260830040503 70 0 0.0 0.0 0.00 0.00 0.00 53 1018.2
20260830035503 71 0 0.0 0.0 0.00 0.00 0.00 52 1018.1
20260830035003 71 0 0.0 0.0 0.00 0.00 0.00 52 1018.1
20260830034504 71 0 0.0 0.0 0.00 0.00 0.00 52 1018.1
20260830034003 71 6 0.0 1.7 0.00 0.00 0.00 52 1018.0
20260830033004 72 0 0.0 0.0 0.00 0.00 0.00 51 1017.9
20260830032503 72 5 0.0 0.9 0.00 0.00 0.00 51 1017.9
20260830032003 72 0 0.0 0.0 0.00 0.00 0.00 51 1017.9
20260830031504 72 12 0.0 0.9 0.00 0.00 0.00 50 1017.8
20260830031003 73 0 0.0 0.0 0.00 0.00 0.00 49 1017.6
20260830030503 73 11 0.0 0.9 0.00 0.00 0.00 50 1017.6